OBJECT A, 61869

Orbit data source: Space-Track

You're viewing an Uncataloged Satellite

Recently launched and/or uncataloged satellites may have evolving metadata. Metadata may include but not limited to: Owner, Maufacturer, Bus, Motor, and Mission.

OBJECT A, 61869 is a satellite owned by Hangtian Hongtu (CN) in SSO that was launched on Sat, 09 Nov 2024 UTC via a CHANG ZHENG 2C launch vehicle from the Jiuquan Satellite Launch Center, China (JSC). Unknown objects in Earth's orbit typically refer to objects detected orbiting the Earth but have not yet been identified or cataloged. These objects could be anything from previously untracked satellites, spent rocket stages, debris from satellite collisions, or even natural meteoroids temporarily captured by Earth's gravity.

Loading next visibility...
OBJECT A details
Identifier
61869, 2024-203A
Orbit
SSO
Last TLE update18 hours ago
Origin
Flag of CNHangtian Hongtu (CN / PRC)
ManufacturerYinhe
MissionOperational spacecraft
Bus & MotorPIESAT, Unknown motor
Mass320 kg wet, 320 kg dry
Launch date (UTC)
2024-11-09 (1 month ago)
Launch vehicle
CHANG ZHENG 2C
Launch site
Jiuquan Satellite Launch Center, China (JSC)
Object typeUnknown
Shape & HBRUnknown
Radar Cross SectionMedium (>0.1 m² and <1 m²)

Expand to show TLE details & history

TLE from 18 hours ago
0 OBJECT A
1 61869U 24203A   24348.16918810  .00011282  00000-0  61276-3 0  9995
2 61869  97.4902  52.4107 0017727  98.8358 261.4882 15.14546928  5143
Epoch: 2024-12-13T04:03Z
Definitive object data (Epoch: 2024-12-13T04:03:37.851Z)
Latitude-0.00005°
Longitude-90.83603°
Altitude527.267 km
Speed7.598 km/s
True Right ascension03h 29m 38s
True Declination0° 00' 00"
Sunlit
Object was in full shadow at TLE epoch
Visualization TLE readout
Latitude82.34896°
Longitude166.63922°
Altitude523.647 km
Speed7.615 km/s
Apparent Right ascension08h 23m 01s
Apparent Declination34° 37' 47"
Sunlit
Object is in daylight
Visualization observer readout
Local Sidereal Time20:26:07
Azimuth0.663° NNE
Elevation-15.451°
Doppler factor1
Orbital elements
Apogee altitude531.558 km
Perigee altitude507.104 km
Semi-major axis6,897.468 km
Eccentricity0.0017727
Inclination97.4902°
RAAN52.4107°
Arg. of periapsis98.8358°
True anomaly261.28737°
Mean anomaly261.4882°
Eccentric anomaly261.38778°
Mean motion3.78886 °/min
BSTAR0.00061276
Orbital period95.02 mins
Loading maneuver chart data...
Loading historical data...
Loading historical data...
Loading historical data...
Loading historical data...
Loading historical data...
Loading historical data...
Loading historical data...
Other satellites on launch #203 in the year 2024 (2024-11-09 UTC)

OBJECT A Visibility forecast

Observer location: undefined°, undefined

Span
Click to sort rows by Start time (UTC) header in descending order
Start Az.
Max El. time (UTC)
Max El. Az.
Max El.
End time (UTC)
End Az.
5 mins2024-12-14 03:59:18.826Z127.951° SE2024-12-14 04:01:18.826Z87.162° E27.17°2024-12-14 04:04:18.826Z14.894° NNE
6 mins2024-12-14 17:06:18.826Z28.704° NE2024-12-14 17:08:18.826Z73.132° E36.922°2024-12-14 17:12:18.826Z177.193° S
|